Temp_Advection
nan nan nan nan nan nan nan nan nan nan nan nan nan nan nan nan nan nan nan nan nan nan nan nan nan nan nan nan nan nan nan nan nan nan nan nan nan nan nan nan nan nan nan nan nan nan nan nan nan nan nan nan nan nan
nan 0 0 0 0 0 0 0 0 0 -0 -0 -0 0 -0 -0 0 0 -0 0 0 -0 -1 -1 -0 -0 -0 -0 -1 -0 -0 -0 -0 -0 -0 -0 -0 -0 -0 -0 0 -0 -0 -0 -0 -0 -1 -0 -1 -1 -1 -1 -1 nan
nan 0 0 0 0 0 0 0 0 0 -0 -0 -0 0 -0 -0 -0 0 0 0 0 -0 -1 -1 -0 0 0 0 -0 -0 -0 -0 0 -0 -1 -0 -0 -0 -0 -0 -0 0 0 -0 -0 0 -1 -1 -1 -1 -1 -1 -1 nan
nan 0 0 0 0 0 0 0 0 0 -0 -0 -0 0 0 0 -0 -0 0 0 0 -0 -1 -1 0 0 -0 0 0 0 -0 -0 0 0 -0 -0 -0 -0 -0 -0 -0 0 0 -0 -0 -1 -2 -2 -3 -2 -1 -1 -0 nan
nan 0 0 0 0 0 0 0 0 0 -0 -0 0 0 -0 0 0 -0 -0 -0 0 -0 -0 -1 -1 0 0 0 0 -0 -0 -0 -0 -0 -0 -1 -0 -0 -0 -0 0 -0 -0 -0 -0 -0 -0 -0 -2 -2 -1 -1 -0 nan
nan 0 0 0 0 0 0 0 -0 -0 -0 -0 0 0 -0 -0 -0 0 0 -0 -0 0 -1 -0 -0 0 0 0 0 0 0 0 0 -0 -1 -0 -0 -0 -0 -0 -0 -0 -0 -0 0 1 0 -0 -1 -1 -1 -1 -1 nan
nan 0 0 0 0 0 0 0 -0 -0 -0 -0 0 0 -0 -0 0 -0 0 0 0 -0 -0 -1 -0 0 0 0 0 0 0 0 0 -0 -1 -1 0 0 -0 -1 -1 1 1 0 1 1 1 0 0 -1 -1 -0 -1 nan
nan 0 0 0 0 0 0 0 -0 -0 -0 0 -0 -0 0 -0 -0 0 0 0 0 0 -0 -0 -0 0 0 0 0 0 -0 -0 -0 -1 -1 -1 -0 0 -0 -1 -0 0 0 0 0 0 0 0 -0 -0 -1 -1 -1 nan
nan 0 0 0 0 0 0 0 -0 -0 -0 -0 -0 -0 0 0 -0 -0 -0 -0 0 -0 -0 -0 -0 -0 0 -0 0 0 -0 -0 -0 -0 -0 -0 -0 -0 -1 -0 -0 0 0 0 0 0 0 1 0 -0 -0 -0 0 nan
nan 0 0 0 0 0 0 0 0 0 -0 -0 -0 -0 0 0 0 -0 0 0 -0 -0 -0 -1 -0 0 -0 -0 -0 0 -0 -0 -0 -0 0 -0 -0 -0 -0 -0 -0 -0 0 0 0 0 0 0 1 0 -0 -0 0 nan
nan 0 0 0 0 0 -0 0 0 -0 -0 -0 -0 0 0 0 -0 -0 -0 -0 -0 -0 -1 -0 -0 0 0 -0 -0 -0 -0 -0 0 -0 -0 0 -0 -0 -0 -0 -1 -1 -1 -0 0 0 0 0 0 0 -0 -0 0 nan
nan 0 0 0 -0 0 0 -0 0 -0 -0 0 -0 -0 0 -0 -0 -0 -0 -0 -0 -0 -0 -0 0 0 0 0 -0 -0 -0 -0 -0 -0 0 -0 -0 -0 -1 -1 -1 -1 -1 -0 0 0 0 0 0 -0 -0 0 0 nan
nan 0 0 0 -0 0 0 -0 -0 -0 0 -0 -0 -0 -0 -0 -0 -0 -0 -0 -0 -0 -0 0 0 0 0 0 -0 -0 -0 -0 -0 0 -0 -0 0 -1 -1 -2 -0 1 1 -0 -0 -0 -0 0 -0 -0 -0 0 0 nan
nan 0 0 -0 -0 0 0 0 0 0 -0 -0 -0 -0 -0 -0 -1 -0 -0 0 0 0 -0 0 0 0 0 -0 -0 -0 -0 0 0 -0 0 0 -0 -0 -0 -0 0 0 0 0 0 -0 -0 0 0 -0 -0 0 0 nan
nan 0 0 -0 -0 0 0 0 0 0 -0 -0 -0 -0 -0 -1 -0 0 0 -0 0 0 -0 -0 0 0 0 -0 -0 0 0 -0 -0 0 0 -0 -0 -0 -0 0 0 0 0 0 -0 -0 -0 0 0 -0 -0 -0 -0 nan
nan 0 -0 -0 0 0 0 0 0 -0 -0 -0 -0 -0 -0 0 0 0 -0 -0 -0 0 0 -0 0 0 -0 -0 0 -0 -0 -0 0 0 -0 -0 0 -0 -0 -0 -0 -0 -0 -0 -0 -0 -0 -0 -0 0 0 -0 -0 nan
nan -0 -0 0 0 0 0 0 -0 -0 -0 -0 -0 -0 -0 -0 0 0 -0 -0 0 0 0 0 0 -0 -0 0 -0 -0 -0 0 -0 -0 -0 -0 -0 -0 0 0 0 -0 -0 -0 -0 -0 -0 0 -0 -0 0 0 0 nan
nan -0 0 0 -0 0 -0 -0 -0 -0 -0 -0 -0 0 -0 -0 -0 -0 -0 -0 0 0 0 0 0 0 -0 -1 -1 -0 0 -0 -0 0 -0 -0 -0 -0 0 0 0 0 0 0 0 -0 -0 -0 -0 -0 -0 -0 0 nan
nan 0 0 -0 -0 -0 -0 -0 -0 -0 -0 -0 -0 -0 -0 -0 -0 -0 -0 -0 0 1 0 0 -0 -0 -1 -1 0 -0 -0 0 -0 0 0 0 0 0 0 0 0 -0 -0 -0 0 0 0 -0 -0 -0 -0 -0 -0 nan
nan 0 0 0 0 0 -0 -0 -0 -0 -0 -0 -0 -0 -0 -0 0 0 0 0 1 0 -0 -0 -0 0 0 -0 -1 -1 -0 0 -0 -0 0 0 -0 0 0 0 -0 0 -0 -0 -0 -0 -0 -0 -0 0 -0 -0 -0 nan
nan 1 0 1 0 0 -0 -0 -0 -0 -0 -0 -0 -0 -0 -0 0 0 0 0 0 -0 -0 0 0 -0 0 0 -0 -1 -1 -1 -0 -0 -0 -1 -0 -0 -0 0 -0 0 0 -0 -0 0 0 -0 -0 -0 -0 -0 -0 nan
nan 0 0 0 -0 -0 -0 -0 0 -0 -0 -0 -0 0 -0 -0 0 0 0 -0 -0 -0 0 0 0 0 0 -0 -0 -0 -0 -0 0 -0 -0 -0 -0 -0 0 0 0 -0 -0 0 0 0 0 -0 0 0 -0 -0 -0 nan
nan -0 -0 -0 -0 -0 -0 0 -0 -0 -0 -0 0 -0 -0 0 0 0 -0 -0 -0 0 0 0 0 0 0 0 -0 -0 -0 0 -0 -0 -0 -0 0 0 0 0 0 0 -0 -0 0 0 -0 0 -0 -0 0 -0 -0 nan
nan -0 -0 -0 -0 -0 -0 -0 -0 -0 0 -0 0 -0 -0 0 -0 -0 -0 -0 1 0 0 0 0 0 0 0 0 0 0 -0 -0 -0 -0 -0 -0 -0 0 0 0 0 -0 -0 -0 0 0 -0 -0 -0 -0 -0 -0 nan
nan -0 -0 -0 -0 -0 -0 -0 -0 0 -0 -0 -0 -0 0 0 -0 -0 -0 0 1 0 0 0 0 0 0 0 0 0 0 -0 -0 -0 0 0 -0 -0 0 0 0 0 -0 -0 -0 -0 0 0 0 -0 -0 -0 -0 nan
nan -0 -0 -0 -0 -0 -0 -0 -0 -0 -0 0 -0 -0 0 0 -0 -0 -0 1 0 -0 0 0 0 0 0 0 0 0 0 0 -0 -0 0 0 0 -0 -0 -0 0 0 0 0 0 -0 0 0 -0 -0 -0 -0 -0 nan
nan -0 -0 -0 -0 -0 -0 -0 0 -0 0 -0 -0 0 0 -0 -0 0 0 0 -0 0 0 0 0 0 0 0 0 0 0 -0 -0 0 0 0 -0 0 0 0 -0 -0 0 0 0 0 -0 0 -0 -0 -0 -0 -0 nan
nan -0 -0 0 0 0 0 0 0 -0 -0 -0 0 0 -0 -0 0 0 0 -0 0 0 0 0 0 0 0 0 0 0 0 -0 0 0 -0 -0 -0 -0 0 0 0 0 0 0 0 0 0 0 0 0 0 -0 -0 nan
nan 0 -0 0 0 0 -0 -0 -0 -0 0 0 0 0 0 0 0 0 0 0 0 0 0 0 0 1 0 0 0 -0 -0 -0 -0 0 -0 -0 0 -0 -0 -0 -0 0 0 0 -0 -0 0 -0 -0 -0 -0 -0 -0 nan
nan 0 0 -0 -0 -0 -0 0 0 0 0 0 1 0 0 -0 -0 0 0 0 0 0 1 1 1 1 1 0 -0 -0 0 -0 0 -0 -0 -0 0 -0 -0 -0 0 0 0 0 0 -0 -0 -0 -0 -0 -0 -0 0 nan
nan 0 -0 -0 -0 0 1 1 1 1 0 1 0 -0 -0 0 -0 -0 0 0 0 0 1 1 1 1 0 0 0 0 -0 -0 0 -0 0 0 -0 -0 -0 0 0 0 0 0 0 0 -0 -0 -0 -0 -0 0 0 nan
nan -0 -0 -0 1 0 1 0 0 -0 0 0 -0 0 0 -0 -1 -0 -0 -0 0 1 1 1 1 0 0 0 0 -0 -0 -0 -0 -0 0 -0 -0 -0 0 0 0 0 0 0 0 -0 -0 -0 -0 -0 0 0 0 nan
nan nan nan nan nan nan nan nan nan nan nan nan nan nan nan nan nan nan nan nan nan nan nan nan nan nan nan nan nan nan nan nan nan nan nan nan nan nan nan nan nan nan nan nan nan nan nan nan nan nan nan nan nan nan
Wind_Speed
14 14 13 12 14 14 14 16 18 20 16 10 6 8 10 11 12 12 13 10 7 8 22 12 13 18 18 15 9 16 13 7 7 5 3 3 4 4 6 5 5 5 5 3 5 8 8 19 4 5 9 11 12 15
15 15 13 13 14 15 14 16 18 19 16 8 8 7 12 12 13 15 15 10 10 13 22 25 21 18 16 15 16 13 9 14 5 4 6 5 4 4 10 4 7 0 5 5 3 2 9 9 11 12 13 11 11 13
15 15 14 14 14 15 14 16 19 19 17 10 10 10 13 15 17 17 22 21 16 13 23 16 14 8 10 12 12 16 10 6 9 13 7 4 5 4 6 6 8 10 8 5 9 4 9 9 13 18 17 16 12 11
15 14 15 15 14 14 14 16 19 18 16 10 10 10 13 18 19 18 19 10 14 9 8 9 10 13 14 13 14 15 18 14 13 11 10 5 5 7 6 9 11 6 10 8 8 11 20 13 23 23 21 20 19 14
15 14 15 15 14 15 15 15 18 17 15 11 10 13 12 17 20 18 14 14 15 9 8 19 20 3 8 5 7 10 13 13 12 6 5 8 12 6 7 9 8 4 3 5 4 14 13 14 25 19 19 20 20 15
15 14 15 15 14 15 15 15 18 16 13 10 11 11 13 16 19 15 4 4 5 7 6 4 11 5 4 5 8 10 11 11 8 5 9 9 13 6 4 5 6 5 2 4 4 16 22 18 15 16 14 17 20 17
15 14 15 14 14 14 14 16 18 16 12 10 10 10 16 18 16 8 6 9 15 12 4 6 5 1 6 8 8 3 3 4 5 6 8 15 17 6 3 10 16 15 10 10 12 12 15 10 12 18 17 15 19 20
15 14 13 13 14 14 13 16 17 13 9 7 9 14 18 17 7 5 8 12 3 2 3 3 4 7 4 10 5 3 4 4 6 7 12 12 13 8 4 12 12 8 11 10 5 6 6 11 10 14 18 10 15 21
16 14 12 13 13 13 13 16 15 12 10 10 14 16 12 3 3 3 6 5 1 4 5 4 5 5 9 12 9 3 3 3 6 5 12 7 7 5 10 13 15 16 15 13 7 6 7 8 9 13 16 16 1 9
17 15 14 13 13 13 13 14 12 12 9 13 17 6 2 2 2 3 4 3 1 3 3 5 9 4 7 11 4 3 3 3 3 4 3 3 7 13 12 11 13 14 15 14 14 11 8 8 11 10 15 14 11 7
17 16 15 14 14 13 13 12 10 8 10 13 2 4 4 3 2 2 2 3 1 3 6 7 7 8 3 5 6 4 3 4 4 0 3 2 2 1 8 11 13 16 17 13 14 13 10 7 5 7 8 13 13 13
18 16 15 14 13 13 14 10 8 10 12 6 3 3 3 2 3 3 3 2 4 3 3 6 6 8 5 3 3 4 3 4 4 6 3 2 4 13 13 11 16 20 11 1 6 7 7 4 3 2 7 10 14 13
18 16 15 13 13 13 10 10 11 13 11 9 3 3 3 3 4 4 4 3 3 4 5 6 6 6 2 4 5 3 3 4 9 3 2 1 12 13 13 20 25 15 18 17 14 11 7 4 4 4 3 9 13 12
19 17 15 13 11 9 5 6 4 13 9 4 5 4 5 5 5 5 6 4 3 4 6 8 7 3 3 2 4 3 3 4 3 3 2 2 13 8 8 7 12 11 12 16 17 16 17 16 16 12 10 9 9 10
19 16 15 13 10 8 6 5 13 11 4 4 4 4 7 11 8 6 7 8 8 8 9 10 9 4 5 3 3 4 2 4 3 3 4 7 6 6 7 7 9 8 11 13 12 10 10 8 7 6 5 5 7 8
19 16 17 12 9 8 9 13 14 6 4 4 6 6 9 7 10 11 12 11 10 8 8 7 4 3 3 3 3 4 3 3 1 3 6 4 4 5 5 5 5 7 8 9 9 8 8 8 8 7 8 9 11 10
20 19 13 10 14 11 14 14 7 5 5 5 7 11 14 11 10 10 12 15 11 8 7 6 4 5 3 4 3 3 4 4 6 7 10 11 8 8 7 5 4 5 7 9 9 9 8 8 8 9 10 9 11 12
23 18 13 15 18 17 18 11 4 6 7 10 10 10 12 13 12 14 14 13 11 13 15 12 9 9 5 9 9 7 8 12 9 8 12 12 11 12 10 9 8 10 11 11 11 11 12 12 14 14 14 14 15 15
17 15 17 21 22 11 8 7 7 5 9 10 12 14 14 14 15 17 17 16 16 15 9 6 6 7 10 17 15 18 14 10 11 10 9 11 10 8 8 10 12 14 14 14 14 15 15 15 16 16 17 18 19 18
20 18 25 27 22 7 5 5 6 6 5 5 9 11 14 14 14 15 15 14 15 8 8 6 11 20 17 20 23 20 13 14 13 15 13 15 15 14 15 15 15 16 17 16 15 15 16 15 17 19 19 19 22 23
20 23 25 23 16 9 4 5 7 6 7 6 7 8 12 14 14 13 14 13 11 7 7 14 20 21 21 23 24 25 27 24 20 18 18 20 17 15 16 16 17 17 15 16 16 15 14 14 15 16 16 17 18 20
19 22 21 22 8 7 7 9 6 2 4 8 12 10 8 7 8 5 2 6 7 15 15 14 11 10 11 10 13 16 18 19 19 19 20 21 21 20 19 18 15 15 15 14 15 15 15 14 14 15 16 18 19 19
21 20 11 11 7 6 4 11 7 6 4 3 2 3 4 4 3 3 5 7 6 8 9 9 10 10 12 11 9 8 11 10 11 14 15 15 15 14 15 15 14 12 10 9 11 12 12 12 13 15 16 17 18 19
19 17 7 10 11 6 6 7 7 5 6 4 3 3 3 4 2 4 4 8 8 6 6 7 8 7 7 8 7 6 6 6 7 8 10 9 7 8 8 8 7 6 7 8 8 9 11 13 15 14 14 15 16 17
9 10 7 8 10 9 7 5 9 5 4 7 3 4 3 4 3 3 5 6 10 9 6 6 6 6 7 6 6 7 7 7 6 6 9 5 6 6 6 6 5 4 5 6 8 9 10 12 12 13 14 13 15 16
8 10 12 16 12 7 8 6 9 10 6 5 5 5 4 3 3 5 3 8 11 9 7 6 5 6 8 9 8 7 8 6 5 6 8 5 5 4 4 5 6 9 11 8 8 9 9 9 10 12 12 12 13 15
7 7 12 11 16 14 7 11 10 6 7 7 4 4 4 5 6 4 4 7 7 7 5 5 6 7 8 8 11 11 9 10 9 9 10 11 6 3 3 3 4 8 7 7 7 7 7 7 9 10 11 11 12 14
8 13 10 20 15 18 7 7 7 7 7 8 5 8 5 5 3 3 5 10 7 6 7 7 7 6 6 7 11 11 10 7 5 5 4 3 2 2 3 3 4 3 3 3 5 5 6 6 7 7 8 9 11 12
9 14 18 12 17 11 12 10 7 10 12 12 4 5 5 5 6 7 10 11 8 9 11 11 11 10 9 7 8 9 7 6 5 4 4 4 3 4 2 0 2 2 2 4 5 7 8 6 6 6 5 7 8 9
14 23 14 16 8 11 15 18 11 10 10 12 11 5 6 7 9 10 13 14 14 16 14 13 13 11 9 7 6 7 8 7 7 7 4 4 5 7 6 5 5 6 7 6 4 3 5 7 8 7 6 5 7 9
13 22 15 16 11 14 16 18 17 14 13 12 14 12 14 10 15 17 19 21 21 21 19 17 16 14 13 11 9 9 7 6 6 5 6 7 6 6 6 7 6 5 4 3 1 1 2 4 6 8 9 10 11 11
19 17 15 11 14 9 13 10 9 8 8 7 11 9 7 7 8 14 20 22 23 21 20 18 16 15 14 11 10 9 11 9 7 5 6 7 7 6 6 6 5 4 3 2 2 3 3 4 5 7 8 10 11 12
17 17 17 15 11 8 10 10 9 6 10 13 15 18 17 15 12 11 11 12 14 14 15 15 14 14 13 13 10 11 11 9 8 7 8 8 6 5 5 4 3 3 3 4 4 5 5 6 7 8 8 8 8 9
Wind_Direction
292 293 295 309 323 323 324 333 330 333 336 319 326 346 345 336 328 324 309 306 289 286 300 299 310 311 316 317 311 315 319 16 308 304 297 346 306 354 292 343 352 194 191 226 208 209 236 353 355 318 -0 330 322 313
286 294 295 295 310 319 317 324 326 327 331 307 306 324 330 326 325 315 291 294 281 270 277 293 293 280 273 287 302 299 281 303 321 308 4 324 309 320 318 308 6 80 7 316 263 344 327 356 26 8 355 338 331 325
278 289 292 292 300 311 310 315 324 323 325 292 288 305 323 327 326 313 287 286 275 285 302 295 295 301 273 273 284 273 285 343 324 335 328 305 282 323 303 320 338 346 14 317 344 98 303 5 25 16 8 1 354 337
277 282 286 288 290 303 304 308 320 320 322 294 282 302 327 333 326 319 311 286 249 277 285 305 309 302 298 273 271 256 262 289 305 306 299 281 295 318 306 300 305 317 327 330 294 -0 342 329 354 355 360 10 13 10
271 277 282 284 287 295 297 302 316 316 317 287 281 306 327 333 333 326 311 277 274 261 299 301 303 277 311 266 264 248 253 271 294 293 266 283 289 312 297 277 270 91 46 338 340 341 314 296 322 327 353 8 17 13
265 273 282 282 280 289 291 300 312 313 312 292 287 302 319 323 337 333 330 39 9 285 293 304 319 316 295 289 275 255 249 253 239 268 281 279 287 300 287 281 54 83 141 170 304 320 314 313 318 330 343 358 17 25
261 270 281 276 275 281 286 300 309 310 308 292 289 311 319 315 321 285 304 294 304 312 273 290 292 309 283 294 282 268 238 236 238 253 257 270 276 222 261 278 300 310 311 284 303 318 307 332 343 344 331 347 7 26
256 266 279 271 273 274 282 298 305 304 300 285 303 310 310 318 319 301 296 309 301 242 258 282 288 298 328 316 307 196 198 217 240 249 271 272 280 260 263 270 281 305 312 318 307 293 305 323 346 348 349 312 3 21
253 259 271 274 273 270 282 298 300 291 286 291 309 315 319 321 291 284 316 342 239 239 300 273 297 341 332 316 301 258 259 252 255 246 264 271 258 231 264 288 300 303 300 289 293 271 307 331 343 353 0 19 144 25
249 254 265 276 269 268 283 297 288 287 293 301 299 304 296 288 297 348 341 345 257 250 249 268 300 299 320 322 299 277 237 270 271 252 265 247 263 267 281 294 299 300 297 281 251 247 265 302 337 343 360 20 36 65
246 252 260 272 266 270 288 291 278 288 294 302 239 205 234 221 303 278 283 267 168 247 217 250 285 306 329 317 326 309 314 281 279 218 304 276 349 327 357 346 351 332 309 267 236 226 244 281 318 340 4 14 33 46
243 248 257 266 262 278 289 279 258 266 273 286 158 133 146 208 245 258 243 235 236 274 219 275 339 319 317 309 278 262 278 290 280 337 286 309 323 26 12 32 9 356 343 289 211 231 251 256 227 157 32 28 37 37
237 243 253 256 266 283 286 285 270 250 242 149 179 145 207 172 250 234 200 231 251 211 243 279 299 309 264 258 269 269 263 252 297 262 270 326 53 42 61 60 36 20 44 62 73 79 88 115 147 142 108 61 56 43
232 239 247 252 266 272 281 289 179 154 163 173 169 201 230 185 241 221 247 293 14 284 286 307 319 266 285 267 254 252 275 329 273 244 53 99 50 36 56 59 56 32 37 49 58 66 76 83 89 96 94 77 62 48
228 236 243 245 249 234 235 191 169 149 188 198 209 237 218 238 254 263 269 280 270 268 285 288 288 258 280 257 256 273 259 249 274 8 30 34 49 42 48 34 45 48 41 49 53 53 51 49 50 34 19 11 1 353
221 232 238 237 220 193 195 179 177 193 232 225 229 242 253 261 257 255 250 261 273 265 281 277 281 282 253 255 251 248 254 268 11 71 36 61 11 352 16 18 34 26 26 27 33 33 27 18 12 353 339 333 326 313
214 223 231 211 188 180 175 173 179 221 233 226 233 241 255 259 260 263 246 250 275 253 245 254 241 233 280 242 242 224 280 350 323 6 332 329 311 304 306 310 323 347 350 350 350 351 350 344 334 325 316 308 303 303
214 221 211 184 172 172 181 195 224 235 241 242 249 251 245 251 259 261 261 259 250 248 254 256 283 258 238 262 279 288 317 309 296 306 301 298 299 280 277 285 296 307 313 315 318 319 321 322 322 319 314 310 305 302
200 198 184 170 166 162 176 204 224 253 241 255 260 261 261 263 265 266 266 261 257 252 269 250 233 243 258 270 277 288 287 289 295 296 302 294 289 285 275 284 297 301 303 306 307 308 307 308 307 308 308 306 302 299
196 189 184 181 172 171 187 221 215 249 262 249 261 264 265 264 269 273 270 260 254 232 225 232 247 255 256 264 275 287 277 280 284 287 280 278 282 283 270 276 291 298 299 301 301 302 300 299 299 301 298 293 291 291
183 184 189 191 193 204 226 211 221 237 261 261 267 279 277 274 267 262 268 259 231 219 245 253 265 273 272 266 262 264 268 274 278 281 281 286 288 291 291 293 293 287 290 299 300 294 296 299 298 297 294 291 287 287
175 183 179 186 179 196 237 223 234 287 241 258 278 259 265 273 269 243 234 232 246 250 247 259 272 281 290 292 285 271 268 265 270 274 274 276 279 280 277 276 277 282 291 290 291 293 295 300 299 296 297 299 299 298
169 166 174 173 194 218 243 191 202 222 230 247 213 238 239 246 223 205 249 227 249 255 254 265 274 274 276 279 290 284 266 260 270 274 277 273 276 282 280 280 278 282 289 290 290 303 305 303 307 306 306 308 308 307
163 165 167 183 198 199 177 201 212 229 212 224 221 263 259 233 181 240 247 246 222 225 243 265 277 284 278 261 264 266 271 283 271 274 275 279 284 273 250 264 275 283 296 303 304 302 306 315 319 321 318 318 319 315
156 182 197 190 189 189 195 203 203 206 230 210 254 259 222 184 240 244 236 234 215 218 229 250 261 263 268 274 273 271 276 273 271 275 277 280 284 282 265 262 261 275 309 305 301 312 320 323 327 326 325 324 322 321
201 187 196 190 178 190 185 194 199 203 200 201 240 238 186 213 239 239 235 209 205 217 241 257 247 261 266 262 261 264 256 266 270 264 263 276 291 282 266 266 272 287 302 318 318 319 325 332 340 341 340 337 335 337
200 177 191 201 192 195 197 201 194 194 194 200 217 184 192 223 233 232 209 198 188 216 239 245 245 256 274 262 255 257 268 277 249 235 258 282 284 258 250 244 261 272 304 308 314 321 328 336 345 345 345 349 349 353
198 187 180 185 195 198 197 190 195 211 204 209 194 195 211 214 235 189 197 198 208 255 275 277 270 269 267 252 247 256 273 264 245 244 249 252 278 287 288 295 302 300 305 326 338 342 335 334 337 344 355 2 2 4
189 184 180 185 192 197 211 205 216 214 208 191 195 203 215 218 213 212 209 212 248 278 283 280 276 279 277 272 257 253 235 194 184 215 236 237 243 280 250 349 19 27 14 360 8 12 7 6 2 355 355 9 10 18
188 180 187 180 192 207 211 206 220 214 204 217 223 248 246 252 260 251 239 241 266 281 282 276 268 263 244 248 247 216 206 215 223 213 220 239 234 252 231 261 299 297 291 303 318 349 23 39 35 36 42 47 46 48
172 186 202 198 216 217 211 209 219 224 228 233 235 240 254 262 265 265 259 262 266 266 263 256 246 246 228 228 217 213 227 232 221 237 240 237 243 237 247 278 293 296 290 281 259 164 98 76 74 72 70 70 72 70
179 191 199 208 217 196 196 198 209 217 217 229 239 231 242 254 259 269 258 257 254 248 248 240 232 231 223 217 221 213 212 227 227 246 234 222 221 233 256 273 283 281 265 232 182 158 152 137 122 106 98 92 88 84
196 200 206 217 205 183 198 194 202 227 225 239 242 229 231 242 246 250 244 233 239 240 235 229 220 210 210 216 221 222 226 231 234 232 218 210 216 234 247 249 244 232 206 182 164 153 149 144 139 132 124 116 109 103
Height
1550 1550 1549 1548 1547 1544 1543 1540 1538 1536 1533 1531 1529 1527 1525 1524 1522 1521 1520 1518 1518 1513 1505 1500 1499 1497 1493 1488 1484 1483 1477 1474 1464 1459 1449 1446 1438 1438 1428 1421 1426 1424 1429 1421 1418 1414 1412 1408 1395 1392 1400 1399 1397 1390
1547 1546 1545 1544 1543 1542 1540 1538 1536 1533 1531 1529 1528 1526 1525 1523 1521 1519 1517 1516 1514 1512 1504 1498 1495 1493 1492 1491 1489 1485 1484 1480 1475 1470 1463 1454 1445 1442 1437 1430 1431 1427 1440 1436 1420 1414 1417 1413 1410 1409 1406 1403 1398 1395
1543 1542 1541 1541 1540 1538 1537 1535 1534 1531 1528 1526 1526 1525 1523 1521 1519 1516 1512 1509 1509 1507 1498 1492 1489 1489 1488 1488 1488 1486 1482 1481 1479 1480 1475 1465 1453 1447 1439 1434 1434 1436 1438 1431 1426 1416 1420 1416 1413 1411 1408 1405 1400 1395
1538 1538 1537 1537 1536 1534 1533 1532 1530 1528 1525 1524 1523 1522 1521 1518 1515 1512 1509 1506 1507 1507 1501 1489 1487 1486 1484 1484 1484 1483 1482 1482 1481 1480 1477 1469 1461 1454 1448 1445 1441 1441 1441 1438 1429 1430 1422 1419 1420 1415 1410 1406 1401 1398
1533 1533 1533 1533 1532 1531 1530 1529 1527 1525 1522 1521 1521 1520 1518 1515 1512 1508 1505 1504 1504 1507 1498 1490 1485 1483 1481 1480 1480 1480 1480 1480 1480 1479 1473 1465 1459 1457 1450 1446 1438 1442 1448 1446 1440 1443 1441 1431 1426 1422 1417 1413 1408 1405
1529 1529 1529 1528 1528 1528 1527 1526 1524 1521 1520 1518 1518 1517 1516 1513 1510 1508 1504 1504 1503 1503 1501 1490 1482 1481 1481 1480 1478 1478 1477 1478 1479 1477 1470 1464 1459 1460 1453 1441 1442 1445 1446 1446 1446 1444 1440 1433 1425 1423 1420 1416 1412 1410
1523 1524 1524 1523 1523 1523 1524 1523 1521 1519 1517 1516 1515 1514 1513 1510 1509 1508 1508 1505 1502 1502 1501 1492 1480 1479 1479 1478 1476 1475 1475 1476 1477 1475 1468 1461 1455 1459 1453 1445 1437 1438 1438 1439 1440 1440 1438 1433 1427 1423 1418 1415 1412 1410
1518 1519 1519 1519 1519 1519 1519 1519 1518 1516 1514 1513 1513 1511 1509 1507 1505 1505 1503 1501 1500 1501 1500 1494 1482 1477 1478 1475 1474 1474 1474 1475 1473 1468 1461 1456 1452 1449 1448 1439 1436 1436 1436 1437 1436 1437 1436 1433 1430 1425 1421 1417 1415 1413
1514 1515 1515 1515 1515 1515 1515 1515 1514 1513 1512 1512 1510 1508 1506 1505 1504 1504 1502 1501 1500 1504 1498 1491 1483 1478 1478 1475 1471 1472 1471 1468 1463 1460 1455 1454 1446 1445 1438 1435 1434 1433 1434 1434 1435 1436 1434 1434 1432 1428 1423 1418 1420 1420
1509 1510 1511 1511 1511 1510 1510 1510 1510 1510 1510 1509 1508 1507 1504 1505 1504 1505 1502 1502 1500 1500 1498 1493 1484 1481 1480 1475 1470 1469 1468 1464 1457 1451 1450 1447 1439 1435 1434 1433 1431 1430 1430 1430 1431 1433 1433 1432 1431 1429 1428 1425 1423 1422
1504 1506 1506 1507 1507 1506 1506 1506 1506 1507 1508 1507 1504 1504 1504 1504 1505 1504 1502 1501 1498 1497 1493 1487 1484 1480 1479 1478 1474 1471 1468 1461 1453 1452 1447 1438 1440 1435 1433 1433 1433 1432 1426 1425 1426 1429 1431 1431 1430 1430 1429 1427 1427 1425
1499 1502 1502 1502 1502 1502 1501 1501 1502 1504 1504 1504 1504 1503 1504 1506 1506 1505 1497 1496 1493 1485 1484 1482 1480 1479 1478 1478 1476 1471 1467 1460 1452 1449 1447 1439 1441 1435 1435 1438 1437 1431 1425 1422 1423 1425 1426 1428 1429 1431 1431 1430 1429 1429
1493 1496 1498 1497 1498 1497 1497 1496 1497 1497 1500 1502 1504 1504 1504 1505 1502 1497 1491 1486 1484 1481 1481 1478 1478 1478 1477 1476 1475 1470 1467 1459 1453 1451 1445 1439 1436 1439 1443 1442 1441 1436 1431 1428 1428 1428 1428 1429 1431 1432 1435 1433 1432 1432
1488 1491 1493 1493 1494 1494 1494 1492 1492 1495 1499 1500 1501 1500 1498 1494 1491 1482 1479 1475 1477 1479 1478 1476 1476 1478 1476 1475 1471 1467 1460 1458 1452 1443 1442 1438 1440 1442 1443 1444 1443 1439 1438 1437 1435 1434 1434 1434 1434 1436 1437 1436 1435 1434
1485 1486 1488 1489 1489 1490 1491 1492 1494 1496 1498 1497 1496 1491 1485 1483 1480 1479 1479 1478 1478 1478 1478 1476 1475 1475 1472 1471 1467 1463 1461 1457 1445 1442 1445 1443 1445 1445 1445 1445 1443 1443 1441 1439 1439 1438 1438 1438 1438 1438 1439 1437 1436 1437
1480 1482 1482 1485 1486 1486 1489 1492 1495 1496 1495 1493 1489 1483 1480 1479 1478 1478 1478 1478 1476 1476 1477 1477 1475 1474 1470 1465 1462 1459 1452 1446 1443 1443 1445 1446 1446 1446 1446 1447 1446 1445 1444 1443 1442 1442 1441 1440 1439 1438 1437 1436 1435 1436
1474 1476 1478 1481 1483 1485 1488 1491 1494 1494 1490 1485 1480 1478 1478 1476 1475 1475 1475 1473 1473 1474 1474 1474 1474 1468 1464 1460 1455 1452 1447 1447 1445 1444 1446 1446 1446 1446 1446 1446 1446 1445 1444 1443 1443 1442 1442 1441 1440 1439 1438 1438 1437 1435
1469 1472 1475 1477 1480 1483 1488 1490 1491 1487 1482 1478 1475 1474 1474 1473 1472 1472 1471 1470 1470 1471 1470 1468 1467 1461 1459 1452 1447 1446 1447 1447 1446 1446 1446 1446 1446 1445 1444 1445 1444 1444 1443 1443 1442 1441 1440 1439 1438 1436 1435 1433 1432 1430
1466 1469 1471 1474 1478 1483 1486 1488 1487 1481 1474 1473 1471 1471 1470 1469 1468 1467 1466 1466 1466 1467 1468 1465 1463 1455 1450 1448 1446 1446 1444 1445 1444 1444 1445 1445 1444 1444 1444 1443 1442 1441 1440 1439 1439 1438 1437 1436 1435 1433 1432 1430 1428 1427
1461 1466 1470 1472 1476 1480 1482 1482 1481 1477 1472 1469 1467 1466 1464 1463 1462 1461 1461 1461 1461 1462 1462 1456 1450 1449 1450 1449 1446 1443 1443 1443 1443 1441 1441 1442 1441 1440 1440 1440 1438 1438 1437 1436 1435 1435 1434 1433 1432 1430 1428 1426 1424 1422
1459 1462 1468 1470 1474 1476 1477 1476 1475 1472 1468 1466 1463 1463 1460 1458 1457 1457 1456 1455 1455 1453 1450 1448 1445 1444 1443 1443 1443 1442 1441 1441 1440 1440 1440 1438 1438 1437 1436 1435 1436 1435 1434 1433 1431 1431 1429 1428 1426 1424 1422 1419 1417 1415
1453 1458 1464 1467 1470 1472 1473 1470 1469 1466 1466 1462 1461 1460 1458 1455 1453 1452 1452 1452 1448 1444 1442 1442 1441 1440 1439 1438 1437 1436 1436 1436 1436 1436 1436 1435 1434 1434 1433 1433 1432 1431 1430 1429 1427 1425 1424 1422 1420 1418 1415 1413 1411 1409
1450 1456 1461 1463 1467 1466 1465 1465 1466 1462 1461 1458 1457 1457 1453 1451 1449 1450 1448 1443 1440 1439 1439 1438 1437 1436 1435 1435 1433 1432 1432 1431 1432 1432 1431 1431 1430 1429 1429 1429 1427 1426 1425 1425 1423 1421 1420 1417 1415 1412 1410 1407 1405 1403
1446 1452 1454 1456 1457 1457 1459 1459 1458 1456 1454 1454 1453 1453 1449 1447 1447 1446 1440 1434 1434 1435 1435 1435 1434 1433 1432 1431 1430 1430 1429 1428 1428 1428 1427 1426 1426 1426 1426 1425 1425 1423 1422 1421 1420 1418 1415 1413 1410 1408 1406 1404 1402 1399
1444 1448 1449 1446 1448 1451 1451 1449 1449 1449 1450 1448 1448 1446 1442 1444 1443 1437 1432 1429 1430 1431 1431 1431 1431 1430 1429 1428 1428 1427 1426 1427 1426 1426 1425 1425 1424 1423 1423 1423 1422 1421 1420 1419 1416 1414 1412 1410 1408 1406 1404 1403 1400 1397
1433 1433 1434 1432 1435 1439 1438 1440 1441 1441 1442 1445 1443 1439 1439 1440 1438 1432 1425 1424 1426 1426 1427 1426 1427 1427 1426 1426 1425 1425 1424 1423 1423 1423 1423 1422 1421 1421 1420 1421 1420 1419 1417 1416 1414 1413 1411 1409 1407 1405 1403 1401 1398 1395
1421 1420 1423 1424 1426 1428 1429 1431 1434 1435 1435 1437 1435 1435 1436 1435 1427 1423 1421 1421 1423 1423 1424 1424 1424 1424 1423 1422 1421 1421 1421 1420 1419 1420 1420 1419 1418 1418 1418 1418 1418 1417 1415 1414 1413 1412 1410 1408 1406 1405 1403 1401 1398 1395
1410 1411 1414 1418 1421 1423 1425 1427 1429 1427 1426 1425 1426 1426 1425 1422 1417 1418 1418 1418 1420 1420 1420 1420 1419 1419 1418 1417 1417 1417 1417 1416 1416 1417 1417 1417 1417 1417 1416 1416 1415 1414 1414 1413 1412 1410 1409 1407 1406 1404 1403 1401 1398 1396
1403 1404 1410 1414 1417 1418 1418 1418 1417 1416 1415 1416 1418 1416 1416 1414 1414 1414 1415 1416 1416 1416 1416 1415 1415 1414 1414 1414 1414 1413 1414 1414 1415 1416 1417 1417 1417 1416 1415 1415 1415 1414 1414 1412 1411 1410 1408 1406 1405 1404 1403 1401 1400 1397
1395 1399 1403 1406 1408 1407 1406 1409 1410 1411 1412 1412 1413 1412 1411 1410 1410 1411 1411 1412 1412 1411 1411 1411 1411 1410 1411 1411 1411 1411 1412 1412 1413 1414 1415 1415 1415 1414 1414 1414 1414 1413 1413 1412 1411 1410 1409 1407 1406 1404 1403 1402 1401 1399
1388 1393 1396 1398 1399 1400 1402 1404 1405 1407 1407 1407 1408 1408 1408 1407 1405 1405 1405 1405 1405 1405 1405 1405 1405 1406 1407 1408 1408 1409 1410 1410 1411 1411 1412 1412 1412 1413 1413 1413 1412 1411 1411 1410 1410 1410 1409 1409 1408 1407 1406 1404 1403 1402
1383 1386 1388 1390 1394 1397 1398 1400 1402 1403 1403 1404 1403 1403 1403 1403 1401 1397 1395 1396 1396 1396 1397 1398 1399 1400 1403 1404 1405 1406 1407 1408 1409 1409 1409 1410 1410 1411 1411 1411 1410 1410 1410 1409 1409 1409 1409 1409 1409 1409 1408 1407 1406 1405
1379 1381 1385 1387 1388 1391 1395 1397 1397 1397 1398 1397 1396 1396 1397 1397 1394 1389 1386 1388 1389 1390 1391 1392 1395 1396 1399 1400 1402 1403 1404 1405 1406 1406 1407 1407 1408 1409 1409 1409 1409 1409 1409 1409 1409 1409 1410 1410 1410 1410 1410 1409 1409 1408